Regional Weather Roundup
Issued by NWS

Home | Current Version | Previous Version | Graphics & Text | Print | Product List | Glossary On
Versions: 1 2 3 4 5 6 7 8 9 10 11 12 13 14 15 16 17 18 19 20 21 22 23 24 25 26 27
000
ASUS45 KBOU 180007
RWRCO

WEATHER ROUNDUP FOR COLORADO
NATIONAL WEATHER SERVICE DENVER/BOULDER CO
600 PM MDT TUE OCT 17 2017

NOTE: "FAIR" INDICATES FEW OR NO CLOUDS BELOW 12000 FEET WITH NO
SIGNIFICANT WEATHER AND/OR OBSTRUCTIONS TO VISIBILITY.

COZ001>005-013-030-031-180100-
...NORTHWEST COLORADO...

CITY           SKY/WX    TMP DP  RH WIND       PRES   REMARKS
CRAIG          FAIR      63  11  13 W7        30.21F
HAYDEN         FAIR      63  15  15 NW6       30.23F
MEEKER         FAIR      67   7   9 CALM      30.22F
RABBIT EARS PA FAIR      45  10  24 W6        30.44F
STEAMBOAT SPGS FAIR      62  11  13 NW5       30.24S
WALDEN         FAIR      54  12  19 W8        30.31S
$$

COZ006>008-011-180100-
...WEST CENTRAL VALLEYS...

CITY           SKY/WX    TMP DP  RH WIND       PRES   REMARKS
GRAND JUNCTION FAIR      67  13  12 W6        30.19F
MONTROSE       FAIR      65  12  12 N6        30.24S
EAGLE          FAIR      66   7  10 S8        30.25S
RIFLE          FAIR      66   6   9 SW8       30.20F
DELTA          FAIR      71  12  10 S5        30.18F
NUCLA          FAIR      70  -4   5 W3        30.26F
$$

COZ017>023-064>068-180100-
...SOUTHWEST COLORADO...

CITY           SKY/WX    TMP DP  RH WIND       PRES   REMARKS
DURANGO        FAIR      67   8  10 SW12      30.26S
CORTEZ         FAIR      67   1   7 NW9       30.24F
PAGOSA SPRINGS FAIR      65   7  10 SW5       30.32S
TELLURIDE      NOT AVBL
WOLF CREEK PAS NOT AVBL
$$

COZ009-010-012-014-032>034-037-058>063-180100-
...CENTRAL COLORADO...

CITY           SKY/WX    TMP DP  RH WIND       PRES   REMARKS
ASPEN          FAIR      57   9  14 NW5       30.30R
BUENA VISTA    FAIR      63   7  11 SW5       30.26S
COPPER MTN     FAIR      46  -9   9 NW14      30.54S
BERTHOUD PASS  FAIR      34  27  75 NW17      30.53S WCI  23
COTTONWOOD PAS FAIR      63  -6   6 W8        30.40S
GUNNISON       FAIR      63   8  11 NW7       30.29F
KREMMLING      FAIR      68  -4   5 W8        30.27S
LEADVILLE      FAIR      53  -1  11 NW9       30.40S
MONARCH PASS   FAIR      43   3  19 SW14      30.64F
SALIDA         NOT AVBL
SUNLIGHT       FAIR      43   3  19 SW12G21   30.50F
WILKERSON PASS FAIR      50   0  12 W3        30.51S
$$

COZ069>075-180100-
...SAN LUIS VALLEY/SANGRE DE CRISTO MOUNTAINS...

CITY           SKY/WX    TMP DP  RH WIND       PRES   REMARKS
ALAMOSA        FAIR      64   7  10 S6        30.27F
DEL NORTE      FAIR      61  17  17 E3        30.30F
LA VETA PASS   FAIR      54   9  16 SW16G23   30.53S
SAGUACHE       FAIR      63  12  14 CALM      30.29S
$$

COZ035-036-038>040-180100-
...NORTHERN COLORADO FRONT RANGE...

CITY           SKY/WX    TMP DP  RH WIND       PRES   REMARKS
DENVER INTL AP MOCLDY    70  20  15 SE3       30.09F
DMNS CITY PARK   N/A     71  10   9 E10       30.10S
AURORA         MOCLDY    70  11  10 SE3       30.12S
FRONT RANGE AP MOCLDY    72  18  13 E6        30.12S
ERIE MUNI ARPT FAIR      70  21  15 CALM      30.13S
BOULDER MUN AP FAIR      73  18  12 W8        30.08S
CENTENNIAL     FAIR      67  15  13 SE3       30.13S
BROOMFIELD     MOCLDY    70  19  14 SW5       30.12F
FORT COLLINS   FAIR      68  24  19 CALM      30.07F
LONGMONT       FAIR      69  32  25 NW3       30.09S
$$

COZ041-046-047-076>085-087-088-180100-
...PIKES PEAK/PALMER DIVIDE AND SOUTHERN FOOTHILLS...

CITY           SKY/WX    TMP DP  RH WIND       PRES   REMARKS
COLO. SPRINGS  FAIR      67  15  13 E9        30.17S
A. F. ACADEMY  FAIR      64  13  14 S5        30.18S
SCHRIEVER AFB  FAIR      65  13  13 S5        30.17F
CHEYENNE MTN   FAIR      64   7  11 SW8       30.15F
ELLICOTT       FAIR     N/A N/A N/A S5        30.15F
FALCON         FAIR      62  11  13 S7        30.22S
FORT CARSON    FAIR      66  15  14 SE6       30.13S
LIMON          FAIR      64  22  20 S5        30.12S
MONUMENT HILL  FAIR      59  19  21 SE7       30.22S
CANON CITY     CLEAR     72  19  14 E7        30.09S
WALSENBURG     FAIR      68  19  15 E5        30.14S
TRINIDAD       FAIR      69  22  16 S5        30.13F
$$

COZ042>045-048>051-090-091-180100-
...NORTHEAST COLORADO...

CITY           SKY/WX    TMP DP  RH WIND       PRES   REMARKS
GREELEY ARPT   FAIR      70  22  16 SE5       30.06F
AKRON          FAIR      68  20  16 W6        30.06S
BURLINGTON     FAIR      60  24  25 S9        30.07S
WRAY           FAIR      72  19  14 SE7       30.01F
YUMA           FAIR      68  23  18 S7        30.03S
STERLING       FAIR      64  25  22 SW9       30.00F
HOLYOKE        FAIR      72  25  17 S6        30.01S
FORT MORGAN    FAIR      71  13  10 SW3       30.06S
$$

COZ086-089-092>099-180100-
...SOUTHEAST COLORADO...

CITY           SKY/WX    TMP DP  RH WIND       PRES   REMARKS
PUEBLO         FAIR      73  16  11 E8        30.06F
LA JUNTA       FAIR      71  29  21 SE6       30.06S
LAMAR          FAIR      73  25  16 SE3       30.02F
SPRINGFIELD      N/A     69  35  28 CALM      30.06F
$$




USA.gov is the U.S. government's official web portal to all federal, state and local government web resources and services.